Weather observations for the past three days for
Marlboro County Jetport
Metric (Imperial)
Date Time (edt) Wind (kph) Vis. (km) Weather Sky Cond. Temperature (ºC) Relative Humidity Wind Chill (°C) Heat Index (°C) Pressure Precipitation (cm)
Air Dwpt 6 hour altimeter (cm) sea level (mb) 1 hr 3 hr 6 hr
Max. Min.
06 12:15 S 22 G 31 16.09 Partly Cloudy SCT095 SCT120 24 16 61% 25 76.17 0.0
06 11:55 S 19 16.09 Fair CLR 25 16 57% 26 76.17 0.0
06 11:35 SW 17 16.09 Fair CLR 24 16 61% 25 76.17 0.0
06 11:15 SW 20 G 35 16.09 Fair CLR 23 16 65% 76.17 0.0
06 10:55 SW 19 G 28 16.09 Fair CLR 22 15 65% 76.2 0.0
06 10:35 S 15 16.09 Fair CLR 22 15 65% 76.2 0.0
06 10:15 SW 15 G 26 16.09 Fair CLR 21 15 69% 76.2 0.0
06 09:55 SW 15 16.09 Fair CLR 20 15 73% 76.23 0.0
06 09:35 S 15 16.09 Fair CLR 20 15 73% 76.2 0.0
06 09:15 SW 15 16.09 Fair CLR 20 15 73% 76.2 0.0
06 08:55 SW 9 16.09 Fair CLR 19 15 78% 76.2 0.0
06 08:35 SW 13 16.09 Fair CLR 18 15 83% 76.17 0.0
06 08:15 SW 9 16.09 Fair CLR 17 14 83% 76.17 0.0
06 07:55 S 7 16.09 Fair CLR 17 14 83% 76.15 0.0
06 07:35 S 7 16.09 Fair CLR 17 14 83% 76.12 0.0
06 07:15 S 7 16.09 Fair CLR 17 13 77% 76.12 0.0
06 06:55 S 9 16.09 Fair CLR 16 13 83% 76.12 0.0
06 06:35 S 6 16.09 Fair CLR 16 13 83% 76.1 0.0
06 06:15 S 6 16.09 Fair CLR 16 13 83% 76.12 0.0
06 05:55 S 6 16.09 Fair CLR 16 13 83% 76.15 0.0
06 05:35 S 6 16.09 Fair CLR 16 13 83% 76.15 0.0
06 05:20 Calm 16.09 Fair CLR 15 13 88% 76.17 0.0
06 04:55 Calm 16.09 Fair CLR 15 13 88% 76.17 0.0
06 04:35 Calm 16.09 Fair CLR 15 13 88% 76.17 0.0
06 04:15 Calm 16.09 Fair CLR 15 13 88% 76.17 0.0
06 03:55 Calm 16.09 Fair CLR 15 13 88% 76.15 0.0
06 03:35 Calm 16.09 Fair CLR 15 13 88% 76.15 0.0
06 03:15 Calm 16.09 Fair CLR 15 13 88% 76.15 0.0
06 02:55 Calm 16.09 Fair CLR 16 13 83% 76.17 0.0
06 02:35 Calm 16.09 Fair CLR 16 13 83% 76.17 0.0
06 02:15 SE 6 16.09 Fair CLR 16 13 83% 76.17 0.0
06 01:55 Calm 16.09 Fair CLR 17 13 77% 76.2 0.0
06 01:35 S 6 16.09 Fair CLR 17 13 77% 76.2 0.0
06 01:15 S 7 16.09 Fair CLR 17 13 77% 76.23 0.0
06 00:55 S 7 16.09 Fair CLR 17 13 77% 76.23 0.0
06 00:35 S 7 16.09 Fair CLR 17 13 77% 76.23 0.0
06 00:15 S 9 16.09 Fair CLR 18 13 73% 76.23 0.0
05 23:55 S 11 16.09 Fair CLR 18 13 73% 76.23 0.0
05 23:35 SE 11 16.09 Fair CLR 18 13 73% 76.23 0.0
05 23:15 S 13 16.09 Fair CLR 19 13 68% 76.23 0.0
05 22:55 S 11 16.09 Fair CLR 19 13 68% 76.25 0.0
05 22:35 S 11 16.09 Fair CLR 20 13 64% 76.25 0.0
05 22:15 S 11 16.09 Fair CLR 20 13 64% 76.23 0.0
05 21:55 S 13 16.09 Fair CLR 20 13 64% 76.2 0.0
05 21:35 SE 15 16.09 Fair CLR 21 13 60% 76.15 0.0
05 21:15 S 17 16.09 Fair CLR 21 13 60% 76.15 0.0
05 20:55 SE 11 16.09 Fair CLR 22 13 57% 76.15 0.0
05 20:35 SE 11 16.09 Fair CLR 22 12 53% 76.12 0.0
05 20:15 SE 7 16.09 Fair CLR 23 11 47% 76.1 0.0
05 19:55 S 9 16.09 Fair CLR 24 11 44% 25 76.1 0.0
05 19:35 S 7 16.09 Fair CLR 25 11 42% 26 76.07 0.0
05 19:15 S 7 16.09 Fair CLR 25 11 42% 26 76.07 0.0
05 18:55 S 11 16.09 Partly Cloudy SCT075 26 11 39% 26 76.1 0.0
05 18:15 S 15 16.09 Fair CLR 26 11 39% 26 76.1 0.0
05 17:55 S 13 16.09 Fair CLR 26 12 42% 26 76.12 0.0
05 17:35 S 17 16.09 Partly Cloudy SCT070 26 11 39% 26 76.12 0.0
05 17:15 S 15 G 26 16.09 Fair CLR 27 11 37% 27 76.12 0.0
05 16:55 S 19 16.09 Partly Cloudy SCT065 27 11 37% 27 76.12 0.0
05 16:35 S 11 G 28 16.09 Mostly Cloudy BKN065 26 12 42% 26 76.12 0.0
05 16:15 SE 11 G 28 16.09 Partly Cloudy SCT065 26 12 42% 26 76.15 0.0
05 15:55 SE 11 16.09 Partly Cloudy SCT065 26 11 39% 26 76.17 0.0
05 15:35 S 13 16.09 Partly Cloudy SCT065 26 11 39% 26 76.2 0.0
05 15:15 S 13 G 26 16.09 Partly Cloudy SCT065 27 11 37% 27 76.2 0.0
05 14:55 S 19 G 26 16.09 Partly Cloudy SCT065 27 11 37% 27 76.23 0.0
05 14:35 SW 15 16.09 Fair CLR 27 11 37% 27 76.25 0.0
05 14:15 S 19 G 26 16.09 Partly Cloudy SCT055 27 11 37% 27 76.25 0.0
05 13:55 SE 19 16.09 Partly Cloudy SCT055 26 12 42% 26 76.25 0.0
05 13:35 SW 15 16.09 Partly Cloudy SCT055 26 11 39% 26 76.28 0.0
05 13:15 S 17 G 26 16.09 Partly Cloudy SCT055 26 12 42% 26 76.3 0.0
05 12:55 SW 15 G 30 16.09 Fair CLR 26 12 42% 26 76.3 0.0
05 12:35 SW 17 16.09 Fair CLR 25 12 44% 26 76.33 0.0
05 12:15 SW 13 16.09 Fair CLR 24 12 47% 25 76.35 0.0
05 11:55 SE 11 16.09 Fair CLR 25 12 44% 26 76.35 0.0
05 11:35 SW 11 16.09 Fair CLR 24 12 47% 25 76.35 0.0
05 11:15 S 13 16.09 Fair CLR 23 13 53% 76.35 0.0
05 10:55 SW 19 G 26 16.09 Fair CLR 23 12 50% 76.35 0.0
05 10:35 S 15 16.09 Fair CLR 22 13 57% 76.35 0.0
05 10:15 S 15 16.09 Fair CLR 21 13 60% 76.35 0.0
05 09:55 S 13 16.09 Fair CLR 19 13 68% 76.35 0.0
05 09:35 S 15 16.09 Fair CLR 18 13 73% 76.35 0.0
05 09:15 SW 15 16.09 Fair CLR 17 12 73% 76.35 0.0
05 08:55 SW 13 16.09 Fair CLR 17 12 73% 76.35 0.0
05 08:35 S 6 16.09 Fair CLR 15 12 82% 76.35 0.0
05 08:15 S 6 16.09 Fair CLR 14 11 82% 76.35 0.0
05 07:55 SE 6 16.09 Fair CLR 13 11 88% 76.35 0.0
05 07:35 Calm 16.09 Fair CLR 11 11 100% 76.33 0.0
05 07:15 Calm 16.09 Fair CLR 10 10 100% 76.33 0.0
05 06:55 Calm 16.09 Fair CLR 9 8 94% 76.33 0.0
05 06:35 Calm 16.09 Fair CLR 8 8 100% 76.28 0.0
05 06:15 Calm 16.09 Fair CLR 8 8 100% 76.28 0.0
05 05:55 Calm 16.09 Fair CLR 8 8 100% 76.28 0.0
05 05:35 Calm 16.09 Fair CLR 10 9 94% 76.28 0.0
05 05:20 Calm 16.09 Fair CLR 10 9 94% 76.25 0.0
05 04:55 Calm 16.09 Fair CLR 10 9 94% 76.25 0.0
05 04:35 Calm 16.09 Fair CLR 10 9 94% 76.25 0.0
05 04:15 Calm 16.09 Fair CLR 11 9 88% 76.23 0.0
05 03:55 Calm 16.09 Fair CLR 11 9 88% 76.23 0.0
05 03:35 Calm 16.09 Fair CLR 12 10 88% 76.23 0.0
05 03:15 Calm 16.09 Fair CLR 12 10 88% 76.23 0.0
05 02:55 Calm 16.09 Fair CLR 13 10 82% 76.23 0.0
05 02:35 S 6 16.09 Fair CLR 13 10 82% 76.23 0.0
05 02:15 S 6 16.09 Fair CLR 13 10 82% 76.23 0.0
05 01:55 S 6 16.09 Fair CLR 14 10 77% 76.23 0.0
05 01:35 S 6 16.09 Fair CLR 15 10 72% 76.25 0.0
05 01:15 SE 6 16.09 Fair CLR 15 10 72% 76.28 0.0
05 00:55 SE 6 16.09 Fair CLR 15 10 72% 76.28 0.0
05 00:35 SE 6 16.09 Fair CLR 16 10 68% 76.28 0.0
05 00:15 S 6 16.09 Fair CLR 16 10 68% 76.28 0.0
04 23:55 S 7 16.09 Fair CLR 17 10 64% 76.28 0.0
04 23:35 S 7 16.09 Fair CLR 17 10 64% 76.28 0.0
04 23:15 S 9 16.09 NULL NULL 17 10 64% 76.28 0.0
04 22:50 S 11 0.00 NULL NULL 17 10 64% 76.25 0.0
04 22:35 S 7 0.00 NULL NULL 0 0 0% 76.25 0.0
04 22:15 S 9 16.09 NULL NULL 18 10 60% 76.25 0.0
04 21:55 S 11 0.00 NULL NULL 0 0 0% 76.23 0.0
04 21:40 S 9 0.00 NULL NULL 0 0 0% 76.23 0.0
04 21:15 SE 7 16.09 Fair CLR 20 8 46% 76.17 0.0
04 21:00 SE 6 16.09 Fair CLR 20 8 46% 76.15 0.0
04 20:35 S 6 0.00 NULL NULL 0 0 0% 76.15 0.0
04 20:15 S 9 16.09 Fair CLR 22 7 38% 76.12 0.0
04 19:55 S 11 16.09 Fair CLR 23 7 36% 76.12 0.0
04 19:35 S 11 16.09 Fair CLR 23 7 36% 76.1 0.0
04 19:15 S 9 16.09 Fair CLR 25 7 32% 25 76.07 0.0
04 18:55 S 17 16.09 Fair CLR 25 7 32% 25 76.07 0.0
04 18:35 S 19 16.09 Fair CLR 25 6 30% 25 76.1 0.0
04 18:15 S 19 G 26 16.09 Fair CLR 25 7 32% 25 76.1 0.0
04 17:55 S 15 16.09 Fair CLR 26 7 30% 26 76.1 0.0
04 17:35 S 15 16.09 Fair CLR 26 6 28% 26 76.1 0.0
04 17:15 S 15 16.09 Fair CLR 26 6 28% 26 76.07 0.0
04 16:55 S 17 16.09 Fair CLR 26 6 28% 26 76.1 0.0
04 16:35 S 15 G 26 16.09 Fair CLR 26 6 28% 26 76.12 0.0
04 16:15 S 11 16.09 Fair CLR 26 6 28% 26 76.12 0.0
04 15:55 SW 19 16.09 Fair CLR 26 6 28% 26 76.12 0.0
04 15:35 SW 20 G 35 16.09 Fair CLR 26 5 26% 26 76.15 0.0
04 15:15 S 17 16.09 Fair CLR 26 5 26% 26 76.17 0.0
04 14:55 S 9 16.09 Fair CLR 26 6 28% 26 76.2 0.0
04 14:35 SW 13 G 26 16.09 Fair CLR 26 5 26% 26 76.2 0.0
04 14:15 S 15 16.09 Fair CLR 25 6 30% 25 76.23 0.0
04 13:55 S 7 16.09 Fair CLR 25 6 30% 25 76.23 0.0
04 13:35 S 9 16.09 Fair CLR 25 6 30% 25 76.25 0.0
04 13:15 S 19 16.09 Fair CLR 25 6 30% 25 76.28 0.0
04 12:55 S 9 G 15 16.09 Fair CLR 25 6 30% 25 76.28 0.0
04 12:35 W 11 16.09 NULL NULL 23 6 33% 76.3 0.0
04 12:20 SW 11 0.00 NULL NULL 0 0 0% 76.3 0.0
04 11:55 W 17 G 28 16.09 Fair CLR 23 6 33% 76.33 0.0
04 11:35 W 9 16.09 Fair CLR 22 8 41% 76.35 0.0
04 11:15 SW 9 16.09 Fair CLR 21 10 50% 76.35 0.0
04 10:55 S 7 16.09 Fair CLR 20 11 56% 76.35 0.0
04 10:35 S 7 16.09 Fair CLR 19 11 60% 76.38 0.0
04 10:15 Calm 16.09 Fair CLR 18 11 64% 76.38 0.0
04 09:55 S 6 16.09 Fair CLR 17 10 64% 76.35 0.0
04 09:35 SW 6 16.09 Fair CLR 16 10 68% 76.35 0.0
04 09:15 SE 6 16.09 Fair CLR 15 10 72% 76.35 0.0
04 08:55 SW 7 16.09 Fair CLR 13 10 82% 76.35 0.0
04 08:35 SW 6 16.09 Fair CLR 12 10 88% 76.35 0.0
04 08:15 S 6 16.09 Fair CLR 12 10 88% 76.35 0.0
04 07:55 S 6 16.09 Fair CLR 11 10 94% 76.35 0.0
04 07:35 Calm 16.09 Fair CLR 10 10 100% 76.35 0.0
04 07:15 Calm 8.05 Fog/Mist CLR 8 8 100% 76.35 0.0
04 06:55 Calm 11.27 Fair CLR 7 7 100% 76.35 0.0
04 06:35 Calm 1.21 Fog/Mist VV005 7 7 100% 76.35 0.0
04 06:15 Calm 11.27 Fair CLR 7 7 100% 76.35 0.0
04 05:55 Calm 16.09 Fair CLR 7 7 100% 76.35 0.0
04 05:35 Calm 11.27 Fair CLR 7 7 100% 76.35 0.0
04 05:15 Calm 16.09 Fair CLR 7 7 100% 76.35 0.0
04 04:55 Calm 16.09 Fair CLR 9 9 100% 76.35 0.0
04 04:35 Calm 16.09 Fair CLR 10 10 100% 76.35 0.0
04 04:15 Calm 16.09 Fair CLR 8 8 100% 76.35 0.0
04 03:55 Calm 16.09 Fair CLR 10 9 94% 76.35 0.0
04 03:35 Calm 16.09 Fair CLR 10 9 94% 76.35 0.0
04 03:15 Calm 16.09 Fair CLR 10 9 94% 76.35 0.0
04 02:55 S 6 16.09 Fair CLR 10 9 94% 76.33 0.0
04 02:35 Calm 16.09 Fair CLR 10 9 94% 76.35 0.0
04 01:55 Calm 16.09 Fair CLR 11 9 88% 76.38 0.0
04 01:35 Calm 16.09 Fair CLR 11 8 82% 76.38 0.0
04 01:15 S 6 16.09 Fair CLR 11 8 82% 76.4 0.0
04 00:55 S 6 16.09 Fair CLR 11 8 82% 76.38 0.0
04 00:35 S 7 16.09 Fair CLR 12 8 77% 76.38 0.0
04 00:15 S 7 16.09 Fair CLR 11 7 77% 76.38 0.0
03 23:55 Calm 16.09 Fair CLR 11 8 82% 76.38 0.0
03 23:35 Calm 16.09 Fair CLR 10 8 88% 76.38 0.0
03 23:15 Calm 16.09 Fair CLR 10 8 88% 76.35 0.0
03 22:55 Calm 16.09 Fair CLR 10 8 88% 76.35 0.0
03 22:35 Calm 16.09 Fair CLR 10 8 88% 76.35 0.0
03 22:15 Calm 16.09 Fair CLR 11 9 88% 76.35 0.0
03 21:55 Calm 16.09 Fair CLR 12 10 88% 76.33 0.0
03 21:35 Calm 16.09 Fair CLR 12 7 72% 76.3 0.0
03 21:15 Calm 16.09 Fair CLR 12 10 88% 76.3 0.0
03 20:55 Calm 16.09 Fair CLR 13 10 82% 76.28 0.0
03 20:35 Calm 16.09 Fair CLR 15 10 72% 76.28 0.0
03 20:15 Calm 16.09 Fair CLR 16 9 63% 76.25 0.0
03 19:55 Calm 16.09 Fair CLR 18 6 46% 76.25 0.0
03 19:35 W 6 16.09 Fair CLR 20 5 38% 76.23 0.0
03 19:15 SW 9 16.09 Fair CLR 20 4 35% 76.23 0.0
03 18:55 SW 11 16.09 Fair CLR 20 4 35% 76.25 0.0
03 18:35 W 7 16.09 Fair CLR 20 4 35% 76.25 0.0
03 18:15 W 6 16.09 Fair CLR 20 4 35% 76.25 0.0
03 17:55 W 11 16.09 Fair CLR 21 4 33% 76.25 0.0
03 17:35 Calm 16.09 Fair CLR 20 4 35% 76.25 0.0
03 17:15 SW 9 16.09 Fair CLR 21 4 33% 76.25 0.0
03 16:55 W 9 16.09 Fair CLR 21 4 33% 76.25 0.0
03 16:35 NW 9 16.09 Fair CLR 20 4 35% 76.28 0.0
03 16:15 NW 11 16.09 Fair CLR 20 4 35% 76.28 0.0
03 15:55 NW 7 16.09 Fair CLR 20 3 33% 76.33 0.0
03 15:35 NW 19 16.09 Fair CLR 20 3 33% 76.35 0.0
03 15:15 W 19 G 30 16.09 Fair CLR 19 3 35% 76.38 0.0
03 14:55 W 15 G 26 16.09 Fair CLR 19 3 35% 76.4 0.0
03 14:35 W 17 G 28 16.09 Fair CLR 19 3 35% 76.43 0.0
03 14:15 W 7 G 28 16.09 Partly Cloudy SCT065 18 3 37% 76.43 0.0
03 13:55 W 20 G 26 16.09 Fair CLR 18 3 37% 76.45 0.0
03 13:20 NW 7 16.09 Partly Cloudy SCT060 17 3 39% 76.48 0.0
03 12:55 W 11 G 26 16.09 Fair CLR 17 4 42% 76.5 0.0
03 12:35 W 17 16.09 Fair CLR 17 4 42% 76.53 0.0
Date Time (edt) Wind (kph) Vis. (km) Weather Sky Cond. Air Dwpt Max. Min. Relative Humidity Wind Chill (°C) Heat Index (°C) altimeter (cm) sea level (mb) 1 hr 3 hr 6 hr
6 hour
Temperature (ºC) Pressure Precipitation (cm)